EW0923 Weather Reports


Display with metric or nautical units.
time (UTC)temp
F
wind
direction
speed
MPH
gust
MPH
rain 1hr
in
rain 24hr
in
rain mn
in
humidity
%
barometer
mb
20260510004553 57 0 0.0 2.0 0.00 0.00 0.00 80 1009.4
20260510004027 57 107 0.0 1.0 0.00 0.00 0.00 80 1009.5
20260510003526 58 0 0.0 1.0 0.00 0.00 0.00 79 1009.3
20260510003044 58 0 0.0 1.0 0.00 0.00 0.00 79 1009.4
20260510002527 58 0 0.0 1.0 0.00 0.00 0.00 78 1009.4
20260510002026 58 0 0.0 1.0 0.00 0.00 0.00 78 1009.5
20260510001539 59 0 0.0 1.0 0.00 0.00 0.00 77 1009.4
20260510001028 59 0 0.0 1.0 0.00 0.00 0.00 77 1009.4
20260510000524 59 99 0.0 1.0 0.00 0.00 0.00 76 1009.4
20260510000043 59 0 0.0 2.0 0.00 0.00 0.00 76 1009.5
20260509235524 60 72 0.0 3.0 0.00 0.00 0.00 75 1009.5
20260509235027 60 46 0.0 3.0 0.00 0.00 0.00 75 1009.4
20260509234559 60 121 0.0 3.0 0.00 0.00 0.00 75 1009.3
20260509234027 60 103 0.0 3.0 0.00 0.00 0.00 74 1009.2
20260509233524 60 0 1.0 3.0 0.00 0.00 0.00 74 1009.2
20260509233045 60 106 1.0 3.0 0.00 0.00 0.00 73 1009.1
20260509232528 60 103 0.0 3.0 0.00 0.00 0.00 73 1009.0
20260509232023 61 98 1.0 3.0 0.00 0.00 0.00 72 1009.1
20260509231543 61 98 1.0 5.0 0.00 0.00 0.00 72 1009.0
20260509231026 61 44 1.0 5.0 0.00 0.00 0.00 71 1009.1
20260509230530 61 48 2.0 5.0 0.00 0.00 0.00 71 1009.0
20260509230040 61 57 2.0 5.0 0.00 0.00 0.00 71 1009.0
20260509225523 61 55 2.0 6.0 0.00 0.00 0.00 71 1009.0
20260509225031 61 39 2.0 6.0 0.00 0.00 0.00 70 1009.0
20260509224543 61 97 2.0 6.0 0.00 0.00 0.00 69 1009.1
20260509224026 61 103 1.0 7.0 0.00 0.00 0.00 69 1009.0
20260509223527 61 118 2.0 7.0 0.00 0.00 0.00 69 1009.2
20260509223044 61 340 2.0 6.0 0.00 0.00 0.00 69 1009.1
20260509222527 61 57 1.0 6.0 0.00 0.00 0.00 69 1009.1
20260509222027 61 57 2.0 6.0 0.00 0.00 0.00 69 1009.1
20260509221602 62 92 2.0 6.0 0.00 0.00 0.00 69 1009.1
20260509221027 62 61 2.0 6.0 0.00 0.00 0.00 69 1009.2
20260509220526 62 53 2.0 8.0 0.00 0.00 0.00 69 1009.3
20260509220055 62 61 3.0 8.0 0.00 0.00 0.00 69 1009.3
20260509215526 62 340 2.0 6.0 0.00 0.00 0.00 68 1009.3
20260509215025 62 61 2.0 6.0 0.00 0.00 0.00 68 1009.4
20260509214544 62 54 2.0 5.0 0.00 0.00 0.00 67 1009.3
20260509214025 63 56 1.0 6.0 0.00 0.00 0.00 68 1009.4
20260509213526 62 26 1.0 7.0 0.00 0.00 0.00 67 1009.3
20260509213043 62 340 2.0 7.0 0.00 0.00 0.00 67 1009.3
20260509212530 62 27 1.0 5.0 0.00 0.00 0.00 67 1009.4
20260509212026 62 303 2.0 8.0 0.00 0.00 0.00 67 1009.5
20260509211542 62 67 1.0 8.0 0.00 0.00 0.00 67 1009.5
20260509211026 63 58 2.0 8.0 0.00 0.00 0.00 66 1009.3
20260509210526 63 306 2.0 7.0 0.00 0.00 0.00 65 1009.0
20260509210044 63 38 2.0 4.0 0.00 0.00 0.00 65 1009.1
20260509205525 63 57 2.0 6.0 0.00 0.00 0.00 65 1009.1
20260509205026 63 0 1.0 7.0 0.00 0.00 0.00 65 1009.2
20260509204545 63 52 3.0 7.0 0.00 0.00 0.00 65 1009.2
20260509204026 63 77 1.0 5.0 0.00 0.00 0.00 65 1009.3
20260509203526 63 46 2.0 5.0 0.00 0.00 0.00 65 1009.1
20260509203050 63 63 2.0 5.0 0.00 0.00 0.00 65 1009.2
20260509202525 63 327 1.0 6.0 0.00 0.00 0.00 65 1009.1
20260509202027 63 36 2.0 6.0 0.00 0.00 0.00 65 1009.0
20260509201544 63 307 2.0 6.0 0.00 0.00 0.00 65 1009.2
20260509201032 63 355 2.0 6.0 0.00 0.00 0.00 63 1009.1
20260509200530 63 332 3.0 7.0 0.00 0.00 0.00 63 1009.1
20260509200044 63 72 3.0 7.0 0.00 0.00 0.00 63 1009.3
20260509195526 63 63 2.0 6.0 0.00 0.00 0.00 64 1009.2
20260509195026 63 55 0.0 9.0 0.00 0.00 0.00 65 1009.2
20260509194536 63 299 2.0 11.0 0.00 0.00 0.00 66 1009.1
20260509194028 63 321 3.0 11.0 0.00 0.00 0.00 66 1009.0
20260509193527 63 300 4.0 11.0 0.00 0.00 0.00 64 1009.2
20260509193056 64 321 3.0 9.0 0.00 0.00 0.00 64 1009.0
20260509192526 64 340 3.0 10.0 0.00 0.00 0.00 66 1009.0
20260509192038 64 27 3.0 10.0 0.00 0.00 0.00 66 1009.0
20260509191607 63 318 3.0 9.0 0.00 0.00 0.00 65 1009.0
20260509191030 63 335 2.0 9.0 0.00 0.00 0.00 65 1009.2
20260509190530 63 316 3.0 9.0 0.00 0.00 0.00 63 1009.5
20260509190049 64 323 2.0 9.0 0.00 0.00 0.00 63 1009.6
20260509185528 64 306 3.0 9.0 0.00 0.00 0.00 63 1009.5
20260509185024 65 327 2.0 9.0 0.00 0.00 0.00 62 1009.5
20260509184541 65 328 1.0 9.0 0.00 0.00 0.00 61 1009.5
20260509184025 65 10 4.0 9.0 0.00 0.00 0.00 60 1009.6
20260509183527 65 304 3.0 9.0 0.00 0.00 0.00 60 1009.5
20260509183042 65 256 2.0 8.0 0.00 0.00 0.00 61 1009.5
20260509182523 65 340 2.0 8.0 0.00 0.00 0.00 61 1009.5
20260509182026 65 31 3.0 8.0 0.00 0.00 0.00 60 1009.5
20260509181546 65 347 2.0 8.0 0.00 0.00 0.00 60 1009.4
20260509181032 65 290 2.0 8.0 0.00 0.00 0.00 60 1009.7
20260509180526 65 344 2.0 8.0 0.00 0.00 0.00 60 1009.6
20260509180045 66 293 2.0 5.0 0.00 0.00 0.00 59 1009.6
20260509175526 66 313 3.0 11.0 0.00 0.00 0.00 58 1009.3
20260509175028 67 293 2.0 11.0 0.00 0.00 0.00 57 1009.3
20260509174545 68 307 1.0 17.0 0.00 0.00 0.00 55 1009.4
20260509174027 69 273 2.0 17.0 0.00 0.00 0.00 52 1009.3
20260509173528 70 207 6.0 16.0 0.00 0.00 0.00 47 1009.1
20260509173052 70 271 4.0 12.0 0.00 0.00 0.00 48 1009.3
20260509172528 70 289 4.0 13.0 0.00 0.00 0.00 48 1009.3
20260509172028 70 223 4.0 13.0 0.00 0.00 0.00 48 1009.5
20260509171548 70 238 4.0 17.0 0.00 0.00 0.00 48 1009.6
20260509171028 69 252 4.0 17.0 0.00 0.00 0.00 48 1009.5
20260509170529 69 251 4.0 14.0 0.00 0.00 0.00 49 1009.5
20260509170045 69 262 4.0 13.0 0.00 0.00 0.00 49 1009.6
20260509165528 70 270 3.0 14.0 0.00 0.00 0.00 50 1009.7
20260509165028 70 223 3.0 14.0 0.00 0.00 0.00 49 1009.8
20260509164549 70 236 4.0 13.0 0.00 0.00 0.00 49 1009.6
20260509164033 69 277 3.0 13.0 0.00 0.00 0.00 50 1009.5
20260509163529 70 269 4.0 13.0 0.00 0.00 0.00 50 1009.6
20260509163051 69 242 4.0 13.0 0.00 0.00 0.00 51 1009.6
20260509162528 70 264 6.0 13.0 0.00 0.00 0.00 50 1009.7
20260509162028 70 237 4.0 18.0 0.00 0.00 0.00 51 1009.9
20260509161541 70 273 6.0 18.0 0.00 0.00 0.00 49 1009.9
20260509161028 70 257 7.0 18.0 0.00 0.00 0.00 50 1010.0
20260509160529 70 213 5.0 11.0 0.00 0.00 0.00 52 1010.1
20260509160039 69 207 3.0 14.0 0.00 0.00 0.00 52 1010.3
20260509155529 69 242 5.0 17.0 0.00 0.00 0.00 52 1010.5
20260509155029 69 258 6.0 17.0 0.00 0.00 0.00 52 1010.5
20260509154546 68 157 4.0 13.0 0.00 0.00 0.00 52 1010.7
20260509154029 69 279 3.0 11.0 0.00 0.00 0.00 52 1010.7
20260509153531 68 242 3.0 14.0 0.00 0.00 0.00 54 1010.7
20260509153046 68 251 5.0 16.0 0.00 0.00 0.00 52 1010.8
20260509152528 68 227 5.0 16.0 0.00 0.00 0.00 53 1010.8
20260509152030 68 244 3.0 14.0 0.00 0.00 0.00 55 1010.9
20260509151543 68 302 4.0 10.0 0.00 0.00 0.00 54 1010.9
20260509151029 68 179 4.0 10.0 0.00 0.00 0.00 55 1010.9
20260509150528 68 292 3.0 13.0 0.00 0.00 0.00 54 1011.0
20260509150043 68 304 3.0 13.0 0.00 0.00 0.00 54 1010.9
20260509145531 68 294 4.0 9.0 0.00 0.00 0.00 53 1010.9
20260509145030 69 242 4.0 11.0 0.00 0.00 0.00 52 1010.8
20260509144546 69 237 5.0 13.0 0.00 0.00 0.00 54 1010.7
20260509144029 69 242 3.0 15.0 0.00 0.00 0.00 56 1010.7
20260509143523 68 233 5.0 17.0 0.00 0.00 0.00 57 1010.7
20260509143040 68 256 5.0 17.0 0.00 0.00 0.00 58 1010.7
20260509142526 68 207 5.0 15.0 0.00 0.00 0.00 57 1010.7
20260509142027 67 254 7.0 15.0 0.00 0.00 0.00 58 1010.7
20260509141549 67 252 2.0 14.0 0.00 0.00 0.00 59 1010.7
20260509141027 67 117 3.0 14.0 0.00 0.00 0.00 60 1010.7
20260509140526 67 293 4.0 16.0 0.00 0.00 0.00 61 1010.6
20260509140045 67 281 4.0 16.0 0.00 0.00 0.00 60 1010.6
20260509135526 66 212 3.0 11.0 0.00 0.00 0.00 63 1010.6
20260509135027 65 261 4.0 11.0 0.00 0.00 0.00 62 1010.6
20260509134552 65 85 3.0 11.0 0.00 0.00 0.00 64 1010.7
20260509134026 64 144 2.0 11.0 0.00 0.00 0.00 67 1010.8
20260509133526 63 238 4.0 10.0 0.00 0.00 0.00 67 1010.9
20260509133043 63 221 3.0 9.0 0.00 0.00 0.00 67 1010.9
20260509132526 62 210 2.0 9.0 0.00 0.00 0.00 68 1011.0
20260509132025 62 220 4.0 7.0 0.00 0.00 0.00 69 1010.9
20260509131555 62 266 3.0 11.0 0.00 0.00 0.00 69 1011.1
20260509131026 61 157 2.0 11.0 0.00 0.00 0.00 71 1011.1
20260509130531 61 245 3.0 12.0 0.00 0.00 0.00 72 1011.0
20260509130056 61 235 3.0 12.0 0.00 0.00 0.00 72 1011.1
20260509125527 60 203 3.0 9.0 0.00 0.00 0.00 72 1011.1
20260509125025 60 157 3.0 9.0 0.00 0.00 0.00 73 1011.2
20260509124545 60 207 2.0 9.0 0.00 0.00 0.00 73 1011.1
20260509124025 60 223 2.0 8.0 0.00 0.00 0.00 74 1011.2
20260509123525 59 280 3.0 9.0 0.00 0.00 0.00 74 1011.1
20260509123051 59 178 3.0 11.0 0.00 0.00 0.00 74 1011.2
20260509122525 59 103 3.0 11.0 0.00 0.00 0.00 75 1011.0
20260509122025 59 232 2.0 9.0 0.00 0.00 0.00 75 1011.0
20260509121543 59 231 2.0 9.0 0.00 0.00 0.00 76 1011.1
20260509121025 58 209 2.0 10.0 0.00 0.00 0.00 76 1011.1
20260509120528 58 223 3.0 11.0 0.00 0.00 0.00 76 1011.1
20260509120039 58 205 4.0 11.0 0.00 0.00 0.00 76 1011.1
20260509115525 58 261 3.0 10.0 0.00 0.00 0.00 77 1011.1
20260509115025 58 210 4.0 10.0 0.00 0.00 0.00 77 1011.1
20260509114552 58 263 4.0 10.0 0.00 0.00 0.00 77 1011.1
20260509114026 58 239 2.0 9.0 0.00 0.00 0.00 77 1011.2
20260509113528 57 17 3.0 13.0 0.00 0.00 0.00 77 1011.2
20260509113049 57 210 4.0 13.0 0.00 0.00 0.00 77 1011.2
20260509112525 57 249 2.0 6.0 0.00 0.00 0.00 77 1011.1
20260509112025 57 231 2.0 6.0 0.00 0.00 0.00 77 1011.1
20260509111544 57 5 3.0 8.0 0.00 0.00 0.00 77 1011.2
20260509111029 57 156 2.0 8.0 0.00 0.00 0.00 77 1011.3
20260509110528 57 167 3.0 7.0 0.00 0.00 0.00 76 1011.2
20260509110057 57 115 2.0 7.0 0.00 0.00 0.00 76 1011.2
20260509105529 57 207 1.0 7.0 0.00 0.00 0.00 76 1011.2
20260509105031 57 154 1.0 8.0 0.00 0.00 0.00 76 1011.2
20260509104553 57 216 2.0 9.0 0.00 0.00 0.00 76 1011.1
20260509104028 57 179 3.0 9.0 0.00 0.00 0.00 76 1011.0
20260509103529 57 217 2.0 10.0 0.00 0.00 0.00 76 1010.9
20260509103045 57 234 3.0 10.0 0.00 0.00 0.00 76 1010.9
20260509102530 56 234 2.0 8.0 0.00 0.00 0.00 76 1010.9
20260509102029 56 133 1.0 6.0 0.00 0.00 0.00 76 1010.9
20260509101544 56 219 2.0 6.0 0.00 0.00 0.00 76 1010.9
20260509101028 56 197 2.0 10.0 0.00 0.00 0.00 76 1011.0
20260509100526 56 150 2.0 10.0 0.00 0.00 0.00 76 1011.0
20260509100044 56 214 2.0 8.0 0.00 0.00 0.00 76 1010.9
20260509095528 56 220 1.0 7.0 0.00 0.00 0.00 76 1010.9
20260509095027 56 232 2.0 8.0 0.00 0.00 0.00 76 1010.8
20260509094540 56 246 2.0 8.0 0.00 0.00 0.00 75 1010.9
20260509094028 56 261 3.0 8.0 0.00 0.00 0.00 75 1010.9
20260509093525 56 275 1.0 8.0 0.00 0.00 0.00 75 1010.9
20260509093036 56 256 3.0 7.0 0.00 0.00 0.00 75 1010.9
20260509092532 55 180 1.0 8.0 0.00 0.00 0.00 75 1010.9
20260509092028 55 277 1.0 8.0 0.00 0.00 0.00 75 1010.9
20260509091544 55 195 3.0 8.0 0.00 0.00 0.00 75 1010.9
20260509091030 55 0 2.0 5.0 0.00 0.00 0.00 75 1010.9
20260509090529 55 222 2.0 9.0 0.00 0.00 0.00 75 1011.0
20260509090049 55 239 4.0 9.0 0.00 0.00 0.00 75 1011.0
20260509085528 55 0 1.0 6.0 0.00 0.00 0.00 75 1010.9
20260509085031 54 205 2.0 6.0 0.00 0.00 0.00 75 1010.9
20260509084542 54 178 1.0 6.0 0.00 0.00 0.00 75 1011.1
20260509084028 54 155 1.0 4.0 0.00 0.00 0.00 75 1011.0
20260509083529 54 111 1.0 6.0 0.00 0.00 0.00 75 1011.1
20260509083047 53 240 2.0 6.0 0.00 0.00 0.00 75 1011.2
20260509082529 53 200 1.0 5.0 0.00 0.00 0.00 75 1011.1
20260509082025 53 271 0.0 3.0 0.00 0.00 0.00 75 1011.3
20260509081546 53 219 1.0 3.0 0.00 0.00 0.00 75 1011.3
20260509081028 52 181 0.0 3.0 0.00 0.00 0.00 75 1011.3
20260509080525 52 196 0.0 3.0 0.00 0.00 0.00 75 1011.4
20260509080044 52 181 0.0 4.0 0.00 0.00 0.00 74 1011.3
20260509075526 52 204 1.0 4.0 0.00 0.00 0.00 74 1011.5
20260509075024 52 188 1.0 3.0 0.00 0.00 0.00 74 1011.5
20260509074549 52 190 0.0 1.0 0.00 0.00 0.00 73 1011.5
20260509074028 52 186 0.0 1.0 0.00 0.00 0.00 73 1011.5
20260509073525 52 0 0.0 1.0 0.00 0.00 0.00 72 1011.5
20260509073042 53 0 0.0 2.0 0.00 0.00 0.00 71 1011.5
20260509072537 53 158 0.0 2.0 0.00 0.00 0.00 71 1011.6
20260509072024 53 0 0.0 2.0 0.00 0.00 0.00 70 1011.6
20260509071538 53 0 0.0 2.0 0.00 0.00 0.00 70 1011.6
20260509071025 54 0 0.0 1.0 0.00 0.00 0.00 69 1011.6
20260509070525 54 0 0.0 2.0 0.00 0.00 0.00 68 1011.8
20260509070036 54 148 0.0 2.0 0.00 0.00 0.00 67 1011.7
20260509065525 54 157 0.0 2.0 0.00 0.00 0.00 67 1011.9
20260509065028 55 221 0.0 1.0 0.00 0.00 0.00 66 1011.8
20260509064544 55 215 0.0 1.0 0.00 0.00 0.00 66 1011.9
20260509064026 55 0 0.0 0.0 0.00 0.00 0.00 65 1011.9
20260509063524 55 0 0.0 2.0 0.00 0.00 0.00 65 1011.9
20260509063044 55 0 0.0 2.0 0.00 0.00 0.00 64 1012.1
20260509062527 55 135 0.0 2.0 0.00 0.00 0.00 63 1012.0
20260509062024 55 166 0.0 1.0 0.00 0.00 0.00 63 1012.1
20260509061542 55 224 0.0 1.0 0.00 0.00 0.00 62 1012.1
20260509061026 56 0 0.0 1.0 0.00 0.00 0.00 61 1012.2
20260509060527 56 194 0.0 1.0 0.00 0.00 0.00 61 1012.1
20260509060039 56 0 0.0 1.0 0.00 0.00 0.00 61 1012.2
20260509055527 56 251 0.0 2.0 0.00 0.00 0.00 60 1012.2
20260509055024 56 0 0.0 2.0 0.00 0.00 0.00 60 1012.2
20260509054542 56 0 0.0 1.0 0.00 0.00 0.00 60 1012.2
20260509054025 56 206 0.0 2.0 0.00 0.00 0.00 59 1012.3
20260509053528 56 168 0.0 3.0 0.00 0.00 0.00 59 1012.3
20260509053137 56 253 1.0 3.0 0.00 0.00 0.00 59 1012.3
20260509052524 56 153 1.0 3.0 0.00 0.00 0.00 59 1012.4
20260509052024 56 252 0.0 3.0 0.00 0.00 0.00 58 1012.6
20260509051550 56 241 0.0 3.0 0.00 0.00 0.00 58 1012.5
20260509051025 56 244 1.0 3.0 0.00 0.00 0.00 58 1012.5
20260509050525 56 0 0.0 1.0 0.00 0.00 0.00 58 1012.6
20260509050047 57 231 0.0 3.0 0.00 0.00 0.00 57 1012.6
20260509045525 57 219 0.0 3.0 0.00 0.00 0.00 57 1012.5
20260509045025 57 238 0.0 2.0 0.00 0.00 0.00 57 1012.6
20260509044539 57 229 0.0 2.0 0.00 0.00 0.00 56 1012.5
20260509044025 58 0 0.0 5.0 0.00 0.00 0.00 55 1012.5
20260509043524 58 244 1.0 5.0 0.00 0.00 0.00 55 1012.5
20260509043043 58 238 1.0 4.0 0.00 0.00 0.00 54 1012.5
20260509042529 58 211 2.0 4.0 0.00 0.00 0.00 53 1012.6
20260509042025 58 236 1.0 4.0 0.00 0.00 0.00 53 1012.5
20260509041544 59 209 1.0 5.0 0.00 0.00 0.00 53 1012.6
20260509041025 59 205 1.0 5.0 0.00 0.00 0.00 52 1012.5
20260509040526 59 259 0.0 6.0 0.00 0.00 0.00 52 1012.5
20260509040106 59 259 1.0 6.0 0.00 0.00 0.00 52 1012.5
20260509035526 59 257 0.0 4.0 0.00 0.00 0.00 51 1012.7
20260509035027 59 212 1.0 7.0 0.00 0.00 0.00 51 1012.6
20260509034547 59 238 2.0 7.0 0.00 0.00 0.00 51 1012.6
20260509034027 59 278 0.0 7.0 0.00 0.00 0.00 50 1012.4
20260509033525 59 265 2.0 7.0 0.00 0.00 0.00 49 1012.5
20260509033039 60 203 2.0 7.0 0.00 0.00 0.00 50 1012.5
20260509032525 60 224 1.0 7.0 0.00 0.00 0.00 49 1012.4
20260509032027 60 0 2.0 7.0 0.00 0.00 0.00 49 1012.3
20260509031547 60 276 2.0 7.0 0.00 0.00 0.00 49 1012.2
20260509031025 60 215 2.0 7.0 0.00 0.00 0.00 50 1012.2
20260509030525 60 215 2.0 7.0 0.00 0.00 0.00 49 1012.2
20260509030045 60 177 1.0 3.0 0.00 0.00 0.00 49 1012.2
20260509025526 60 179 1.0 3.0 0.00 0.00 0.00 49 1012.2
20260509025025 60 248 1.0 4.0 0.00 0.00 0.00 49 1012.2
20260509024545 61 253 1.0 4.0 0.00 0.00 0.00 48 1012.2
20260509024025 61 211 0.0 7.0 0.00 0.00 0.00 48 1012.1
20260509023524 61 250 1.0 7.0 0.00 0.00 0.00 48 1012.3
20260509023047 61 205 2.0 6.0 0.00 0.00 0.00 48 1012.3
20260509022527 61 242 2.0 6.0 0.00 0.00 0.00 47 1012.3
20260509022027 61 258 1.0 6.0 0.00 0.00 0.00 47 1012.3
20260509021539 62 276 1.0 7.0 0.00 0.00 0.00 47 1012.3
20260509021026 62 145 1.0 9.0 0.00 0.00 0.00 47 1012.2
20260509020526 62 230 3.0 9.0 0.00 0.00 0.00 47 1012.2
20260509020048 62 273 2.0 13.0 0.00 0.00 0.00 48 1012.2
20260509015526 62 228 2.0 13.0 0.00 0.00 0.00 48 1012.1
20260509015025 61 286 1.0 5.0 0.00 0.00 0.00 49 1012.2
20260509014544 61 208 2.0 9.0 0.00 0.00 0.00 50 1012.1
20260509014024 61 234 1.0 9.0 0.00 0.00 0.00 51 1012.1
20260509013530 61 202 1.0 6.0 0.00 0.00 0.00 52 1012.1
20260509013102 61 261 1.0 6.0 0.00 0.00 0.00 52 1012.0
20260509012524 61 265 1.0 4.0 0.00 0.00 0.00 53 1011.9
20260509012026 61 271 0.0 4.0 0.00 0.00 0.00 54 1011.9
20260509011541 61 244 1.0 3.0 0.00 0.00 0.00 54 1011.8
20260509011025 61 244 0.0 2.0 0.00 0.00 0.00 54 1011.7
20260509010524 61 254 0.0 3.0 0.00 0.00 0.00 54 1011.8
20260509010036 61 142 1.0 5.0 0.00 0.00 0.00 54 1011.5
20260509005526 61 0 0.0 5.0 0.00 0.00 0.00 54 1011.4
20260509005025 61 161 1.0 5.0 0.00 0.00 0.00 53 1011.4